AirNav   Air Wisconsin pilot careers
 
 1919 users online  

2TS9 McBee Field Airport
Wills Point, Texas, USA

GOING TO WILLS POINT?


FAA INFORMATION EFFECTIVE 26 APRIL 2018

Location

FAA Identifier: 2TS9
Lat/Long: 32-45-26.7000N / 096-03-26.0000W
32-45.445000N / 096-03.433333W
32.7574167 / -96.0572222
(estimated)
Elevation: 543 ft. / 166 m
From city: 4 miles NW of WILLS POINT, TX
Time zone: UTC -5 (UTC -6 during Standard Time)
Zip code: 75169

Airport Operations

Airport use: Private use. Permission required prior to landing
Activation date: 10/2015
Control tower: no
ARTCC: FORT WORTH CENTER
FSS: FORT WORTH FLIGHT SERVICE STATION
Attendance: UNATNDD
Wind indicator: yes
Segmented circle: no

Airport Communications

WX ASOS at TRL (11 nm W): 119.275 (972-551-1334)
WX AWOS-3 at GVT (19 nm N): 133.425 (903-455-7703)

Nearby radio navigation aids

VOR radial/distance  VOR name  Freq  Var
CQYr007/35.3CEDAR CREEK VORTAC114.8006E
UIMr250/35.6QUITMAN VOR/DME114.0008E
SLRr216/37.0SULPHUR SPRINGS VOR/DME109.0008E

 
NDB name  Hdg/Dist  Freq  Var  ID
TRAVIS085/9.726006EAVZ .- ...- --..
CADDO MILLS144/19.531606EMII -- .. ..
MESQUITE094/24.024803EPQF .--. --.- ..-.
ATHENS336/37.726906EAHX .- .... -..-

Airport Services

Runway Information

Runway 4/22

Dimensions: 1920 x 60 ft. / 585 x 18 m
Surface: turf
RUNWAY 4  RUNWAY 22
Traffic pattern: leftleft

Airport Ownership and Management from official FAA records

Ownership: Privately-owned
Owner: ROBERT NYCHKA
2830 VZ COUNTY ROAD 3804
WILLS POINT, TX 75169
Phone 214-293-1630
Manager: ROBERT NYCHKA
2830 VZ COUNTY ROAD 3804
WILLS POINT, TX 75169
Phone 214-293-1630

Airport Operational Statistics

Aircraft based on the field: 1
Single engine airplanes: 1
    

Instrument Procedures

There are no published instrument procedures at 2TS9.

Some nearby airports with instrument procedures:

KTRL - Terrell Municipal Airport (11 nm W)
KGVT - Majors Airport (19 nm N)
7F3 - Caddo Mills Municipal Airport (19 nm NW)
F46 - Ralph M Hall/Rockwall Municipal Airport (22 nm NW)
KHQZ - Mesquite Metro Airport (24 nm W)
 
Loc | Ops | Rwys | IFR | FBO | Links
Com | Nav | Svcs | Stats | Notes

AirNav Hotels Sweepstakes
 
Aerial photo
No photo
 
Airport distance calculator
Flying to McBee Field Airport? Find the distance to fly.

From to 2TS9

Sunrise and sunset
Times for 22-May-2018
 Local
(UTC-5)
 Zulu
(UTC)
Morning civil twilight05:5410:54
Sunrise06:2211:22
Sunset20:2001:20
Evening civil twilight20:4701:47

Current date and time
Zulu (UTC)  22-May-2018 21:05:42
Local (UTC-5)  22-May-2018 16:05:42
 
METAR
KTRL 
11nm W 
222053Z AUTO 17007KT 10SM FEW044 31/18 A2995 RMK AO2 SLP137 T03110183 57022
KGVT 
19nm N 
222030Z AUTO 00000KT 10SM SCT047 SCT060 SCT075 31/18 A2997 RMK AO2
TAF
KDAL 
40nm W 
221738Z 2218/2318 17009KT P6SM SCT030 SCT060 BKN300 FM231200 16007KT P6SM SCT025 SCT300 TEMPO 2313/2315 BKN020
KTYR 
41nm SE 
221727Z 2218/2318 VRB04KT P6SM VCTS BKN040CB TEMPO 2218/2221 VRB15G25KT 2SM TSRA BR BKN020CB FM222200 VRB04KT P6SM SCT045 BKN120 BKN250 FM230100 VRB04KT P6SM SCT150 BKN250 FM231600 VRB04KT P6SM SCT025 BKN250
KDFW 
49nm W 
221738Z 2218/2324 17009KT P6SM SCT030 SCT060 BKN300 FM231200 16007KT P6SM SCT025 SCT300 TEMPO 2313/2315 BKN020
NOTAMs
Click for the latest NOTAMs
NOTAMs are issued by the DoD/FAA and will open in a separate window not controlled by AirNav.

 

 
 

Would you like to see your business listed on this page?

 If your business provides an interesting product or service to pilots, flight crews, aircraft, or users of the McBee Field Airport, you should consider listing it here.  To start the listing process, click on the button below
 
Add a business
 

Other Pages about McBee Field Airport

Update a link
 
Copyright © AirNav, LLC. All rights reserved. Privacy Policy  Contact